When you browse on this site, cookies collect data to enhance your experience and personalize the content and advertising you see.
Visit our Privacy Policy to learn more. By continuing to use the site, you agree to this use of cookies and data.
  • In Czech Republic
  • List of Countries
  • For 7 days
  • Water Temperature
  • Satellite Maps
  • Weather Map
  • Weather Widgets
  • user-avatar
    Login

    Hourly Weather Stayki (Timonovo)

    Today, 22 May, Wednesday

    Time Temperature Precipitation Wind Pressure Humidity
    00:00 +14°C° 0 mm 3 mps 744 mmHg 94%
    01:00 +13°C° 0 mm 3 mps 744 mmHg 95%
    02:00 +14°C° 0 mm 2 mps 743 mmHg 95%
    03:00 +14°C° 0 mm 2 mps 743 mmHg 95%
    04:00 +14°C° 0 mm 2 mps 743 mmHg 95%
    05:00 +14°C° 0 mm 2 mps 743 mmHg 95%
    06:00 +15°C° 0 mm 2 mps 743 mmHg 90%
    07:00 +17°C° 0 mm 2 mps 743 mmHg 86%
    08:00 +18°C° 0 mm 2 mps 743 mmHg 80%
    09:00 +20°C° 0 mm 2 mps 742 mmHg 73%
    10:00 +22°C° 0 mm 1 mps 742 mmHg 67%
    11:00 +24°C° 0 mm 1 mps 742 mmHg 61%
    12:00 +24°C° 0 mm 1 mps 742 mmHg 57%
    13:00 +25°C° 0 mm 1 mps 742 mmHg 53%
    14:00 +26°C° 0 mm 1 mps 741 mmHg 49%
    15:00 +25°C° 0 mm 1 mps 741 mmHg 51%
    16:00 +25°C° 0 mm 1 mps 741 mmHg 52%
    17:00 +25°C° 0 mm 1 mps 741 mmHg 54%
    18:00 +23°C° 0 mm 1 mps 740 mmHg 60%
    19:00 +21°C° 0 mm 1 mps 740 mmHg 66%
    20:00 +19°C° 0 mm 1 mps 740 mmHg 72%
    21:00 +16°C° 0.1 mm 0 mps 740 mmHg 75%
    22:00 +16°C° 0.1 mm 0 mps 740 mmHg 79%
    23:00 +15°C° 0.1 mm 0 mps 740 mmHg 82%

    Tomorrow, 23 May, Thursday

    Time Temperature Precipitation Wind Pressure Humidity
    00:00 +15°C° 0.1 mm 0 mps 740 mmHg 83%
    01:00 +14°C° 0.1 mm 0 mps 740 mmHg 85%
    02:00 +14°C° 0.1 mm 0 mps 740 mmHg 86%
    03:00 +15°C° 0 mm 1 mps 740 mmHg 85%
    04:00 +15°C° 0 mm 1 mps 740 mmHg 85%
    05:00 +15°C° 0 mm 1 mps 740 mmHg 85%
    06:00 +18°C° 0 mm 1 mps 740 mmHg 79%
    07:00 +20°C° 0 mm 1 mps 740 mmHg 73%
    08:00 +21°C° 0 mm 2 mps 740 mmHg 66%
    09:00 +23°C° 0 mm 2 mps 740 mmHg 61%
    10:00 +24°C° 0 mm 2 mps 740 mmHg 57%
    11:00 +25°C° 0 mm 2 mps 740 mmHg 52%
    12:00 +25°C° 0 mm 3 mps 740 mmHg 52%
    13:00 +26°C° 0 mm 3 mps 740 mmHg 52%
    14:00 +26°C° 0 mm 3 mps 739 mmHg 53%
    15:00 +26°C° 0 mm 3 mps 739 mmHg 56%
    16:00 +25°C° 0 mm 3 mps 739 mmHg 59%
    17:00 +25°C° 0 mm 3 mps 739 mmHg 62%
    18:00 +23°C° 0 mm 2 mps 739 mmHg 67%
    19:00 +21°C° 0 mm 2 mps 739 mmHg 72%
    20:00 +20°C° 0 mm 1 mps 739 mmHg 77%
    21:00 +19°C° 0 mm 1 mps 739 mmHg 79%
    22:00 +18°C° 0 mm 1 mps 740 mmHg 81%
    23:00 +18°C° 0 mm 1 mps 740 mmHg 84%

    Day after tomorrow, 24 May, Friday

    Time Temperature Precipitation Wind Pressure Humidity
    00:00 +16°C° 0 mm 1 mps 740 mmHg 85%
    01:00 +16°C° 0 mm 1 mps 740 mmHg 87%
    02:00 +15°C° 0 mm 1 mps 740 mmHg 89%
    03:00 +16°C° 0 mm 1 mps 740 mmHg 89%
    04:00 +16°C° 0 mm 1 mps 740 mmHg 89%
    05:00 +16°C° 0 mm 1 mps 740 mmHg 89%
    06:00 +19°C° 0 mm 1 mps 740 mmHg 84%
    07:00 +20°C° 0 mm 1 mps 741 mmHg 79%
    08:00 +22°C° 0 mm 1 mps 741 mmHg 74%
    09:00 +23°C° 1.4 mm 1 mps 741 mmHg 71%
    10:00 +24°C° 1.4 mm 1 mps 741 mmHg 67%
    11:00 +25°C° 1.4 mm 1 mps 741 mmHg 64%
    12:00 +25°C° 1.6 mm 1 mps 741 mmHg 64%
    13:00 +25°C° 1.6 mm 1 mps 741 mmHg 63%
    14:00 +25°C° 1.6 mm 1 mps 741 mmHg 62%
    15:00 +25°C° 0.8 mm 2 mps 740 mmHg 67%
    16:00 +24°C° 0.8 mm 2 mps 740 mmHg 72%
    17:00 +22°C° 0.8 mm 3 mps 740 mmHg 77%
    18:00 +21°C° 0.9 mm 3 mps 740 mmHg 81%
    19:00 +19°C° 0.9 mm 3 mps 740 mmHg 86%
    20:00 +18°C° 0.9 mm 3 mps 740 mmHg 90%
    21:00 +17°C° 0.4 mm 3 mps 740 mmHg 92%
    22:00 +17°C° 0.4 mm 3 mps 740 mmHg 94%
    23:00 +16°C° 0.4 mm 3 mps 740 mmHg 96%

    25 May, Saturday

    Time Temperature Precipitation Wind Pressure Humidity
    00:00 +16°C° 0.3 mm 3 mps 739 mmHg 96%
    01:00 +16°C° 0.3 mm 3 mps 739 mmHg 97%
    02:00 +14°C° 0.3 mm 3 mps 739 mmHg 97%
    03:00 +16°C° 0 mm 2 mps 739 mmHg 96%
    04:00 +16°C° 0 mm 2 mps 739 mmHg 94%
    05:00 +16°C° 0 mm 2 mps 739 mmHg 93%
    06:00 +18°C° 0.4 mm 2 mps 738 mmHg 88%
    07:00 +19°C° 0.4 mm 2 mps 738 mmHg 84%
    08:00 +20°C° 0.4 mm 2 mps 738 mmHg 79%
    09:00 +23°C° 0.6 mm 2 mps 738 mmHg 74%
    10:00 +24°C° 0.6 mm 2 mps 738 mmHg 69%
    11:00 +25°C° 0.6 mm 2 mps 738 mmHg 63%
    12:00 +24°C° 1.7 mm 3 mps 738 mmHg 66%
    13:00 +24°C° 1.7 mm 3 mps 737 mmHg 69%
    14:00 +22°C° 1.7 mm 3 mps 737 mmHg 72%
    15:00 +22°C° 0.8 mm 3 mps 737 mmHg 76%
    16:00 +21°C° 0.8 mm 2 mps 737 mmHg 80%
    17:00 +20°C° 0.8 mm 2 mps 737 mmHg 84%
    18:00 +19°C° 0.6 mm 2 mps 737 mmHg 87%
    19:00 +18°C° 0.6 mm 2 mps 737 mmHg 90%
    20:00 +17°C° 0.6 mm 2 mps 737 mmHg 94%
    21:00 +16°C° 0.1 mm 2 mps 737 mmHg 94%
    22:00 +16°C° 0.1 mm 2 mps 737 mmHg 94%
    23:00 +15°C° 0.1 mm 2 mps 737 mmHg 94%

    26 May, Sunday

    Time Temperature Precipitation Wind Pressure Humidity
    00:00 +13°C° 0 mm 3 mps 737 mmHg 94%
    01:00 +12°C° 0 mm 3 mps 738 mmHg 94%
    02:00 +11°C° 0 mm 3 mps 738 mmHg 93%
    03:00 +11°C° 0 mm 3 mps 738 mmHg 94%
    04:00 +11°C° 0 mm 3 mps 738 mmHg 94%
    05:00 +11°C° 0 mm 3 mps 739 mmHg 94%
    06:00 +12°C° 0 mm 3 mps 739 mmHg 89%
    07:00 +13°C° 0 mm 3 mps 739 mmHg 83%
    08:00 +14°C° 0 mm 3 mps 739 mmHg 78%
    09:00 +15°C° 0 mm 4 mps 739 mmHg 73%
    10:00 +17°C° 0 mm 4 mps 739 mmHg 67%
    11:00 +18°C° 0 mm 4 mps 739 mmHg 62%
    12:00 +19°C° 0 mm 4 mps 739 mmHg 60%
    13:00 +19°C° 0 mm 4 mps 739 mmHg 58%
    14:00 +20°C° 0 mm 5 mps 739 mmHg 56%
    15:00 +19°C° 0 mm 4 mps 739 mmHg 59%
    16:00 +19°C° 0 mm 4 mps 739 mmHg 62%
    17:00 +19°C° 0 mm 4 mps 739 mmHg 66%
    18:00 +17°C° 0 mm 3 mps 739 mmHg 72%
    19:00 +16°C° 0 mm 3 mps 738 mmHg 78%
    20:00 +14°C° 0 mm 2 mps 738 mmHg 84%
    21:00 +14°C° 0 mm 2 mps 738 mmHg 86%
    22:00 +13°C° 0 mm 2 mps 738 mmHg 89%
    23:00 +12°C° 0 mm 3 mps 738 mmHg 92%

    27 May, Monday

    Time Temperature Precipitation Wind Pressure Humidity
    00:00 +12°C° 1.2 mm 3 mps 738 mmHg 93%
    01:00 +11°C° 1.2 mm 3 mps 738 mmHg 93%
    02:00 +11°C° 1.2 mm 4 mps 738 mmHg 94%
    03:00 +10°C° 0.2 mm 4 mps 738 mmHg 93%
    04:00 +10°C° 0.2 mm 4 mps 739 mmHg 93%
    05:00 +8°C° 0.2 mm 4 mps 739 mmHg 92%
    06:00 +9°C° 0 mm 5 mps 739 mmHg 86%
    07:00 +10°C° 0 mm 6 mps 740 mmHg 80%
    08:00 +10°C° 0 mm 7 mps 740 mmHg 74%
    09:00 +11°C° 0 mm 7 mps 740 mmHg 70%
    10:00 +12°C° 0 mm 7 mps 741 mmHg 65%
    11:00 +14°C° 0 mm 7 mps 741 mmHg 61%
    12:00 +15°C° 0 mm 7 mps 741 mmHg 62%
    13:00 +15°C° 0 mm 7 mps 742 mmHg 62%
    14:00 +15°C° 0 mm 7 mps 742 mmHg 63%
    15:00 +15°C° 0.1 mm 6 mps 742 mmHg 66%
    16:00 +15°C° 0.1 mm 5 mps 742 mmHg 69%
    17:00 +14°C° 0.1 mm 5 mps 743 mmHg 72%
    18:00 +13°C° 0 mm 4 mps 743 mmHg 76%
    19:00 +12°C° 0 mm 3 mps 743 mmHg 80%
    20:00 +12°C° 0 mm 2 mps 744 mmHg 85%
    21:00 +10°C° 0 mm 2 mps 744 mmHg 87%
    22:00 +9°C° 0 mm 2 mps 744 mmHg 88%
    23:00 +9°C° 0 mm 1 mps 745 mmHg 90%
    Show more